This demonstration page uses our WeatherBlox Daily Observations layout. Learn more.

Left ArrowRight Arrow

40.92945, -100.16068

Hourly Observations for February 19, 2016

Temp ( °F °C ) Dew Point ( °F °C ) Humidity (%) Winds ( mph kmh ) Pressure ( in mb ) Visibility ( mi km ) Precip ( " mm )
12:15 am 00:15 Clear 57 14.1 28 -2.1 33 33 WNW 33 54 29.5 999 10 16.0934 N/A
12:35 am 00:35 Clear 56 13.3 32 -0.1 40 40 W 25 41 29.53 1000 10 16.0934 N/A
12:55 am 00:55 Clear 55 12.5 28 -2.4 36 36 W 29 46 29.53 1000 10 16.0934 N/A
1:15 am 01:15 Clear 54 12 25 -3.7 33 33 W 23 37 29.59 1002 10 16.0934 N/A
1:35 am 01:35 Clear 53 11.4 26 -3.5 35 35 W 23 37 29.62 1003 10 16.0934 N/A
1:55 am 01:55 Clear 52 11.3 24 -4.7 33 33 W 29 46 29.62 1003 10 16.0934 N/A
2:15 am 02:15 Clear 51 10.5 22 -5.4 33 33 WNW 23 37 29.65 1004 10 16.0934 N/A
2:35 am 02:35 Clear 51 10.5 21 -6.2 31 31 WNW 29 46 29.68 1005 10 16.0934 N/A
2:55 am 02:55 Clear 50 10 21 -5.9 32 32 WNW 30 48 29.71 1006 10 16.0934 N/A
3:15 am 03:15 Clear 50 10.2 21 -6 32 32 WNW 30 48 29.71 1006 10 16.0934 N/A
3:35 am 03:35 Clear 50 9.9 22 -5.7 33 33 WNW 25 41 29.71 1006 10 16.0934 N/A
3:55 am 03:55 Clear 49 9.5 22 -5.5 35 35 WNW 21 33 29.74 1007 10 16.0934 N/A
4:15 am 04:15 Clear 47 8.5 22 -5.4 37 37 WNW 17 28 29.77 1008 10 16.0934 N/A
4:35 am 04:35 Clear 47 8.3 22 -5.4 38 38 W 17 28 29.77 1008 10 16.0934 N/A
4:55 am 04:55 Clear 47 8.6 21 -6 35 35 W 21 33 29.77 1008 10 16.0934 N/A
5:15 am 05:15 Clear 46 7.9 22 -5.6 38 38 W 16 26 29.77 1008 10 16.0934 N/A
5:35 am 05:35 Clear 45 7.4 22 -5.3 40 40 W 15 24 29.83 1010 10 16.0934 N/A
5:55 am 05:55 Clear 43 6.3 22 -5.5 43 43 WSW 10 17 29.83 1010 10 16.0934 N/A
6:15 am 06:15 Clear 42 5.5 23 -4.9 47 47 WSW 12 19 29.85 1011 10 16.0934 N/A
6:35 am 06:35 Clear 42 5.8 23 -5 46 46 WSW 15 24 29.85 1011 10 16.0934 N/A
6:55 am 06:55 Clear 43 6 23 -5 46 46 WSW 15 24 29.88 1012 10 16.0934 N/A
7:15 am 07:15 Clear 42 5.5 23 -4.9 47 47 WSW 15 24 29.88 1012 10 16.0934 N/A
7:35 am 07:35 Sunny 42 5.6 24 -4.7 48 48 WSW 14 22 29.91 1013 10 16.0934 N/A
7:55 am 07:55 Sunny 42 5.8 24 -4.6 48 48 WSW 13 20 29.91 1013 10 16.0934 N/A
8:15 am 08:15 Sunny 43 6.2 24 -4.5 47 47 WSW 10 17 29.94 1014 10 16.0934 N/A
8:35 am 08:35 Sunny 43 5.9 24 -4.3 48 48 WSW 13 20 29.94 1014 10 16.0934 N/A
8:55 am 08:55 Sunny 46 7.5 24 -4.4 43 43 WSW 14 22 29.94 1014 10 16.0934 N/A
9:15 am 09:15 Sunny 46 8 24 -4.2 42 42 W 14 22 29.97 1015 10 16.0934 N/A
9:35 am 09:35 Sunny 48 8.8 25 -3.9 41 41 W 16 26 29.97 1015 10 16.0934 N/A
9:55 am 09:55 Sunny 50 10 26 -3.4 39 39 W 16 26 29.94 1014 10 16.0934 N/A
10:15 am 10:15 Sunny 53 11.4 25 -3.8 35 35 W 17 28 29.94 1014 10 16.0934 N/A
10:35 am 10:35 Sunny 54 12.4 26 -3.5 33 33 W 17 28 29.94 1014 10 16.0934 N/A
10:55 am 10:55 Sunny 56 13.3 24 -4.2 30 30 WNW 17 28 29.91 1013 10 16.0934 N/A
11:15 am 11:15 Sunny 57 14.1 25 -4.1 28 28 WNW 21 33 29.91 1013 10 16.0934 N/A
11:35 am 11:35 Sunny 59 15 25 -4 27 27 WNW 15 24 29.91 1013 10 16.0934 N/A
11:55 am 11:55 Sunny 60 15.5 24 -4.6 25 25 WNW 21 33 29.88 1012 10 16.0934 N/A
12:15 pm 12:15 Sunny 61 16.1 24 -4.2 25 25 WNW 17 28 29.88 1012 10 16.0934 N/A
12:35 pm 12:35 Sunny 62 16.5 23 -4.9 23 23 WNW 18 30 29.88 1012 10 16.0934 N/A
12:55 pm 12:55 Sunny 63 17.1 23 -4.8 22 22 WNW 16 26 29.85 1011 10 16.0934 N/A
1:15 pm 13:15 Sunny 63 17.3 23 -5 22 22 WNW 16 26 29.85 1011 10 16.0934 N/A
1:35 pm 13:35 Sunny 64 17.7 22 -5.6 20 20 WNW 12 19 29.85 1011 10 16.0934 N/A
1:55 pm 13:55 Sunny 65 18.3 21 -6.2 18 18 W 14 22 29.85 1011 10 16.0934 N/A
2:15 pm 14:15 Sunny 66 18.9 19 -7.5 16 16 W 13 20 29.83 1010 10 16.0934 N/A
2:35 pm 14:35 Sunny 67 19.2 18 -7.8 15 15 WSW 10 17 29.83 1010 10 16.0934 N/A
2:55 pm 14:55 Sunny 67 19.4 19 -7.5 16 16 WSW 14 22 29.83 1010 10 16.0934 N/A
3:15 pm 15:15 Sunny 67 19.3 19 -7.4 16 16 WSW 15 24 29.83 1010 10 16.0934 N/A
3:35 pm 15:35 Sunny 67 19.2 21 -6 18 18 WSW 14 22 29.83 1010 10 16.0934 N/A
3:55 pm 15:55 Sunny 66 19.1 22 -5.8 18 18 WSW 15 24 29.83 1010 10 16.0934 N/A
4:15 pm 16:15 Sunny 67 19.4 22 -5.7 18 18 WSW 13 20 29.83 1010 10 16.0934 N/A
4:35 pm 16:35 Sunny 67 19.5 21 -6 17 17 W 10 17 29.83 1010 10 16.0934 N/A
4:55 pm 16:55 Sunny 66 18.9 21 -6.3 18 18 W 16 26 29.83 1010 10 16.0934 N/A
5:15 pm 17:15 Sunny 64 18 22 -5.7 19 19 NW 15 24 29.83 1010 10 16.0934 N/A
5:35 pm 17:35 Sunny 62 16.7 25 -4.1 24 24 W 10 17 29.85 1011 10 16.0934 N/A
5:55 pm 17:55 Sunny 59 14.9 24 -4.3 26 26 W 9 15 29.88 1012 10 16.0934 N/A
6:15 pm 18:15 Sunny 55 12.9 25 -4.1 31 31 W 9 15 29.88 1012 10 16.0934 N/A
6:35 pm 18:35 Clear 50 10.1 24 -4.6 36 36 WSW 6 9 29.91 1013 10 16.0934 N/A
6:55 pm 18:55 Clear 47 8.5 24 -4.5 40 40 WSW 6 9 29.94 1014 10 16.0934 N/A
7:15 pm 19:15 Clear 46 8 25 -4 43 43 SW 7 11 29.94 1014 10 16.0934 N/A
7:35 pm 19:35 Clear 46 7.8 25 -3.7 44 44 WSW 8 13 29.94 1014 10 16.0934 N/A
7:55 pm 19:55 Clear 48 8.7 26 -3.2 43 43 SSW 8 13 29.94 1014 10 16.0934 N/A
8:15 pm 20:15 Clear 49 9.4 26 -3.1 42 42 SW 9 15 29.94 1014 10 16.0934 N/A
8:35 pm 20:35 Clear 49 9.6 25 -3.8 39 39 SSW 10 17 29.91 1013 10 16.0934 N/A
8:55 pm 20:55 Clear 47 8.6 26 -3.6 42 42 SW 9 15 29.94 1014 10 16.0934 N/A
9:15 pm 21:15 Clear 47 8.4 25 -3.7 43 43 SSW 8 13 29.94 1014 10 16.0934 N/A
9:35 pm 21:35 Clear 47 8.2 25 -4 42 42 SSW 9 15 29.94 1014 10 16.0934 N/A
9:55 pm 21:55 Clear 41 5.2 25 -3.7 53 53 SW 6 9 29.97 1015 10 16.0934 N/A
10:15 pm 22:15 Clear 42 5.3 25 -3.7 53 53 SW 8 13 29.97 1015 10 16.0934 N/A
10:35 pm 22:35 Clear 42 5.4 25 -4 51 51 N N/A 29.97 1015 10 16.0934 N/A
10:55 pm 22:55 Clear 35 1.9 27 -3 70 70 NE 5 7 30 1016 10 16.0934 N/A
11:15 pm 23:15 Clear 35 1.9 26 -3.2 69 69 ENE 3 6 30 1016 10 16.0934 N/A
11:35 pm 23:35 Clear 35 1.9 26 -3.3 69 69 N N/A 30 1016 10 16.0934 N/A
11:55 pm 23:55 Clear 34 1.1 26 -3.3 73 73 N N/A 30 1016 10 16.0934 N/A

Powered by AerisWeather